Location: *
(49.6619°S, 177.4603°W)
Time: 06:05:12
(UTC+00:00)

Cosmos 1500 - Pass Details

Date: 31 January 2023
Orbit: 481 x 495 km, 82.5° (Epoch: 01 April)

Event Time Altitude Azimuth Distance (km) Brightness Sun altitude
Rises 09:01:49 0° 183° (S) 2,660 7.6 -11.9°
Reaches altitude 10° 09:04:08 10° 173° (S) 1,766 6.5 -12.1°
Maximum altitude 09:07:41 34° 107° (ESE) 880 4.1 -12.5°
Enters shadow 09:09:41 20° 55° (NE) 1,229 4.5 -12.8°
